TimeCST,TemperatureF,Dew PointF,Humidity,Sea Level PressureIn,VisibilityMPH,Wind Direction,Wind SpeedMPH,Gust SpeedMPH,PrecipitationIn,Events,Conditions,WindDirDegrees,DateUTC
12:54 AM,18.0,9.0,68,30.28,10.0,NW,15.0,21.9,N/A,,Clear,310,2013-02-20 06:54:00
1:54 AM,17.1,9.0,71,30.31,10.0,NW,11.5,19.6,N/A,,Clear,310,2013-02-20 07:54:00
2:54 AM,15.1,8.1,74,30.32,10.0,NW,11.5,-,N/A,,Clear,320,2013-02-20 08:54:00
3:43 AM,14.0,8.6,79,30.30,10.0,NNW,13.8,-,N/A,,Mostly Cloudy,330,2013-02-20 09:43:00
3:54 AM,12.9,7.0,77,30.33,10.0,NNW,13.8,-,N/A,,Overcast,330,2013-02-20 09:54:00
4:30 AM,12.2,6.8,79,30.29,10.0,NNW,13.8,-,N/A,,Scattered Clouds,330,2013-02-20 10:30:00
4:54 AM,10.9,5.0,77,30.33,10.0,North,12.7,18.4,N/A,,Scattered Clouds,350,2013-02-20 10:54:00
5:02 AM,10.4,5.0,79,30.30,10.0,North,15.0,-,N/A,,Mostly Cloudy,350,2013-02-20 11:02:00
5:54 AM,10.0,3.9,76,30.35,10.0,North,13.8,-,N/A,,Mostly Cloudy,360,2013-02-20 11:54:00
6:01 AM,10.4,3.2,73,30.31,10.0,North,11.5,-,N/A,,Scattered Clouds,360,2013-02-20 12:01:00
6:54 AM,10.0,3.0,73,30.38,10.0,North,11.5,-,N/A,,Partly Cloudy,350,2013-02-20 12:54:00
7:54 AM,12.0,3.9,70,30.39,9.0,NNW,10.4,-,N/A,,Scattered Clouds,330,2013-02-20 13:54:00
8:54 AM,12.9,3.9,67,30.40,10.0,North,10.4,-,N/A,,Partly Cloudy,10,2013-02-20 14:54:00
9:54 AM,15.1,7.0,70,30.43,9.0,Calm,Calm,-,N/A,,Partly Cloudy,0,2013-02-20 15:54:00
10:54 AM,19.0,9.0,65,30.42,10.0,Variable,3.5,-,N/A,,Partly Cloudy,0,2013-02-20 16:54:00
11:54 AM,21.0,9.0,60,30.43,10.0,NW,6.9,-,N/A,,Clear,310,2013-02-20 17:54:00
12:54 PM,23.0,10.0,58,30.40,10.0,WNW,10.4,-,N/A,,Clear,290,2013-02-20 18:54:00
1:54 PM,24.1,10.9,57,30.38,10.0,WNW,9.2,-,N/A,,Clear,290,2013-02-20 19:54:00
2:54 PM,25.0,12.9,60,30.35,10.0,NNW,9.2,-,N/A,,Clear,330,2013-02-20 20:54:00
3:54 PM,26.1,12.9,58,30.37,10.0,NW,6.9,-,N/A,,Clear,320,2013-02-20 21:54:00
4:54 PM,25.0,12.9,60,30.36,10.0,NNW,5.8,-,N/A,,Clear,340,2013-02-20 22:54:00
5:54 PM,24.1,14.0,65,30.35,10.0,NNE,6.9,-,N/A,,Clear,20,2013-02-20 23:54:00
6:54 PM,24.1,14.0,65,30.35,10.0,North,4.6,-,N/A,,Clear,10,2013-02-21 00:54:00
7:54 PM,24.1,16.0,71,30.35,10.0,NE,8.1,-,N/A,,Clear,40,2013-02-21 01:54:00
9:54 PM,21.0,16.0,81,30.37,10.0,NE,6.9,-,N/A,,Clear,40,2013-02-21 03:54:00
10:54 PM,19.9,16.0,85,30.37,10.0,NE,9.2,-,N/A,,Clear,40,2013-02-21 04:54:00
11:54 PM,19.0,15.1,85,30.38,10.0,NNE,6.9,-,N/A,,Clear,30,2013-02-21 05:54:00